This is the latest recevied weather packets stored in our database for station/object G4KVI. If no packets are shown the sender has not sent any weather packets the latest 10 day(s).
| Time | Temp. | Humidity | Pressure | Rain* | Wind** | Luminosity | Snow |
|---|---|---|---|---|---|---|---|
| 1787822404 | 20.56° C | 87% | 1009.3 hPa | 0 mm | - | 262 W/m² | - |
| 1787822104 | 20.56° C | 87% | 1009.2 hPa | 0 mm | - | 251 W/m² | - |
| 1787821803 | 20.56° C | 87% | 1009.1 hPa | 0 mm | - | 258 W/m² | - |
| 1787821503 | 20.56° C | 87% | 1008.8 hPa | 0 mm | - | 213 W/m² | - |
| 1787821204 | 20.56° C | 88% | 1009 hPa | 0 mm | - | 219 W/m² | - |
| 1787820904 | 20.56° C | 89% | 1009 hPa | 0 mm | - | 233 W/m² | - |
| 1787820603 | 20.56° C | 88% | 1009.1 hPa | 0 mm | - | 181 W/m² | - |
| 1787820304 | 20.56° C | 88% | 1009.3 hPa | 0 mm | - | 172 W/m² | - |
| 1787820004 | 20° C | 89% | 1009.2 hPa | 0 mm | - | 298 W/m² | - |
| 1787819704 | 20° C | 90% | 1009.4 hPa | 0 mm | - | 238 W/m² | - |
| 1787819404 | 20° C | 91% | 1009.2 hPa | 0 mm | - | 319 W/m² | - |
| 1787819104 | 19.44° C | 92% | 1009.2 hPa | 0 mm | - | 309 W/m² | - |
| 1787818804 | 19.44° C | 92% | 1009.2 hPa | 0 mm | - | 205 W/m² | - |
| 1787818504 | 19.44° C | 93% | 1009.3 hPa | 0 mm | - | 184 W/m² | - |
| 1787818203 | 19.44° C | 93% | 1009.4 hPa | 0 mm | - | 121 W/m² | - |
| 1787817904 | 18.89° C | 93% | 1009.2 hPa | 0 mm | - | 109 W/m² | - |
| 1787817604 | 18.89° C | 93% | 1009.3 hPa | 0 mm | - | 116 W/m² | - |
| 1787817304 | 18.89° C | 94% | 1009.1 hPa | 0 mm | - | 86 W/m² | - |
| 1787817004 | 18.89° C | 94% | 1009.2 hPa | 0 mm | - | 110 W/m² | - |
| 1787816704 | 18.89° C | 94% | 1009.3 hPa | 0 mm | - | 125 W/m² | - |
| 1787816404 | 18.89° C | 94% | 1009 hPa | 0 mm | - | 131 W/m² | - |
| 1787816104 | 18.89° C | 94% | 1009.1 hPa | 0 mm | - | 74 W/m² | - |
| 1787815803 | 18.33° C | 94% | 1009 hPa | 0 mm | - | 122 W/m² | - |
| 1787815503 | 18.33° C | 95% | 1009 hPa | 0 mm | - | 102 W/m² | - |
| 1787815203 | 18.33° C | 95% | 1009.3 hPa | 0 mm | - | 76 W/m² | - |
* Rain latest hour (hover to see other rain measurements)
** Current wind speed in m/s (hover to see current wind gust speed)